Back to catalog

PSLV DEB

AliveSSO
NORAD 27130·DEBRIS·🇮🇳 India

Launched Oct 22, 2001 from Satish Dhawan Space Centre

Loading…

Next Passes (next 24 hours)

TLE

FreshSource: Space-Track

Epoch: Sep 13, 2026, 18:03 UTC

1 27130U 01049CA  26256.75276745  .00000864  00000-0  10660-3 0  9995
2 27130  98.1213 314.9763 0014623 162.3851 315.6479 14.85476419331544

Track PSLV DEB in real time with AllMySat

Download on the App Store